924  
SXUS52 KTAE 181618  
OSOTAE  
OSOTAE  
NORTH FLORIDA/SOUTH ALABAMA/SOUTHWEST GEORGIA WEATHER ROUNDUP  
NATIONAL WEATHER SERVICE TALLAHASSEE FLORIDA  
1200 PM EDT WED JUL 18 2018  
 
NOTE: "FAIR" INDICATES FEW OR NO CLOUDS BELOW 12,000 FEET WITH NO  
SIGNIFICANT WEATHER AND/OR OBSTRUCTIONS TO VISIBILITY.  
 
!FLZ017-115-028-034-025-181700   
..NORTH FLORIDA
 
 
 
CITY SKY/WX TMP DP RH WIND PRES REMARKS  
TALLAHASSEE PTSUNNY 80 76 87 S5 29.99F  
APALACHICOLA LGT RAIN 81 77 88 W8 30.01F  
PERRY FAIR 83 79 86 SW3 30.02S HX 94  
CROSS CITY PTSUNNY 88 76 67 W14 30.02R HX 99  
JACKSONVILLE PTSUNNY 86 76 71 SW6 30.00S HX 96  

 
 
!FLZ112-006-005-002-011-181700   
..FLORIDA PANHANDLE
 
 
 
CITY SKY/WX TMP DP RH WIND PRES REMARKS  
MARIANNA FAIR 86 77 74 VRB3 29.98F HX 97  
BONIFAY NOT AVBL  
PANAMA CITY NW PTSUNNY 85 76 74 S9 29.98F HX 94  
TYNDALL AFB MOSUNNY 82 76 82 W12 29.99F  
TYND DRONE APT PTSUNNY 81 75 80 W8 30.00F  
DE FUNIAK SPR FAIR 85 74 70 NW3 30.00F HX 92  
EGLIN AFB MOSUNNY 86 75 70 VRB3 29.98F HX 95  
DESTIN FAIR 85 76 74 CALM 29.98F HX 94  
HURLBURT MOSUNNY 87 74 64 NE3 29.97F HX 95  
CRESTVIEW FAIR 84 74 71 CALM 30.01F HX 91  
PENSACOLA FAIR 87 75 67 VRB6 29.98F HX 96  

 
 
!ALZ063-066-181700   
..SOUTH ALABAMA
 
 
 
CITY SKY/WX TMP DP RH WIND PRES REMARKS  
DOTHAN PTSUNNY 85 74 69 VRB5 30.03F HX 92  
OZARK CAIRNS FAIR 84 77 79 NW5 29.99F HX 94  
FT RUCKER HELI CLOUDY 85 76 74 W6 29.99F HX 94  
RUCKER HELI 3 CLOUDY 82 76 82 NW6 30.00S  
RUCKER HELI 2 PTSUNNY 83 75 77 CALM 29.98F HX 90  
FLORALA APT CLOUDY 80 73 79 NW3 30.03S  
ANDALUSIA CLOUDY 83 74 74 CALM 30.01S  
TROY PTSUNNY 81 74 79 CALM 30.01F  
EUFALA CLOUDY 90 77 65 CALM 29.97F HX 103  
MOBILE PTSUNNY 87 76 69 NW9 30.01R HX 97  

 
 
!GAZ120>161-181700   
..SOUTHWEST AND SOUTH CENTRAL GEORGIA
 
 
 
CITY SKY/WX TMP DP RH WIND PRES REMARKS  
THOMASVILLE FAIR 86 72 62 CALM 30.00F HX 92  
BAINBRIDGE FAIR 88 73 62 SW7 29.99S HX 96  
MOODY AFB MOSUNNY 88 75 66 W12 29.99F HX 97  
VALDOSTA FAIR 88 76 67 CALM 29.99F HX 99  
MOULTRIE FAIR 86 73 66 W3 30.00F HX 93  
BLAKELY CLOUDY 82 72 69 CALM 29.99F  
ALBANY PTSUNNY 87 74 64 CALM 30.00F HX 95  
TIFTON PTSUNNY 85 74 70 W5 30.00 HX 92  
FITZGERALD PTSUNNY N/A N/A N/A W3 30.02S  
CORDELE FAIR 86 75 71 SW7 29.99F HX 94  
AMERICUS FAIR 86 68 54 W3 30.00F  
HOMERVILLE FAIR 86 73 66 W5 30.00F HX 93  

 
 
!GMZ750-755-770-775-181700   
..COASTAL AND BUOY OBS
 
 
 
STATION/POSITION TIME TEMP WIND PRES VSBY WAVE  
AIR SEA DIR/SP/G HT/PER  
(UTC) (F) (DEG/KT/KT) (MB) (MI) (FT/S)  
KEATON BEACH 1600 84 300/ 6/ 8 1016.5F  
CEDAR KEY 1600 85 260/ 7/ 12 1017.1R  
C TOWER 1600 80 290/ 12/ 13 1016.5F  
APALACHICOLA BUO NOT AVBL  
PANAMA CITY BUOY 1550 82 85 270/ 10/ 16 1016.5R 3/ 5  
MOBILE BUOY 1600 84 290/ 6/ 8 1017.5  
ORANGE BCH AL BU 1600 81 270/ 8/ 10 1016.0  

 
 
 
CLICK HERE TO GO TO PREVIOUS BULLETINS.

The Nexlab FL Page
The Nexlab GA Page
The Nexlab AL Page Main Text Page